Regional Weather Roundup
Issued by NWS

Home | Current Version | Previous Version | Text Only | Print | Product List | Glossary On
Versions: 1 2 3 4 5 6 7 8 9 10 11 12 13 14 15 16 17 18 19 20 21 22 23 24 25 26 27 28 29 30 31 32 33 34 35 36 37 38 39 40 41 42 43 44 45 46 47 48 49 50
000
ASCA42 TJSJ 020111
RWRPR
PUERTO RICO/U.S. VIRGIN ISLANDS HOURLY WEATHER ROUNDUP
NATIONAL WEATHER SERVICE SAN JUAN PR
900 PM AST SUN FEB 01 2015

PRZ001-004-020200-
PUERTO RICO

CITY           SKY/WX    TMP DP  RH WIND       PRES   REMARKS
SAN JUAN LMM   PTCLDY    77  64  65 E14       30.10R
PONCE          CLEAR     75  64  69 NE6       30.00
AGUADILLA      CLEAR     73  64  73 E10       30.10S
CEIBA          CLEAR     77  64  65 NE14      30.12R
$$

PRZ006-007-020200-
U.S. VIRGIN ISLANDS

CITY           SKY/WX    TMP DP  RH WIND       PRES   REMARKS
$$

HOURLY WEATHER ROUNDUP FOR THE NEWS MEDIA

CITY           SKY/WX    TMP DP  RH WIND       PRES   REMARKS
MIAMI          PTCLDY    71  59  65 E10       30.11S
ORLANDO        CLEAR     63  54  72 SE8       30.09R
NEW YORK       CLOUDY    34  21  59 E3        30.11F
NEWARK         CLOUDY    35  23  61 CALM      30.10F
CHICAGO        SNOW      21  19  92 NE20G32   29.80R VSB 1/2 WCI   6
HARTFORD       PTCLDY    21  13  71 CALM      30.13R
BOSTON         MOCLDY    22  -1  36 N10       30.15  WCI  11
DALLAS         PTCLDY    44  27  51 N16G29    30.18R
PHILADELPHIA   CLOUDY    36  21  54 SE8       30.09F WCI  30



USA.gov is the U.S. government's official web portal to all federal, state and local government web resources and services.